Regional Weather Roundup
Issued by NWS

Home | Current Version | Previous Version | Graphics & Text | Print | Product List | Glossary On
Versions: 1 2 3 4 5 6 7 8 9 10 11 12 13 14 15 16 17 18 19 20 21 22 23 24 25 26 27 28 29 30 31 32 33 34 35 36 37 38 39 40 41 42 43 44 45 46 47 48 49 50
174
ASUS44 KLIX 040405
RWRLA
LOUISIANA WEATHER ROUNDUP
NATIONAL WEATHER SERVICE NEW ORLEANS LA
1000 PM CST TUE MAR 03 2015

NOTE: "FAIR" INDICATES FEW OR NO CLOUDS BELOW 12,000 FEET WITH NO
      SIGNIFICANT WEATHER AND/OR OBSTRUCTIONS TO VISIBILITY.
      SKY/WX - SKY CONDITION AND SIGNIFICANT WEATHER.
      TMP - AIR TEMPERATURE.    DP   - DEWPOINT TEMPERATURE.
      RH  - RELATIVE HUMIDITY.  PRES - PRESSURE.
      HX  - HEAT INDEX.         WCI  - WIND CHILL INDEX.

*  THESE STATIONS ARE NOT NWS OR FAA STATIONS AND ARE NOT UNDER
   NWS QUALITY CONTROL.

LAZ040-048-061>063-065-066-069-040500-
SOUTHEAST LOUISIANA

CITY           SKY/WX    TMP DP  RH WIND       PRES   REMARKS
N.O. AUDUBON     N/A     71  70  98 MISG        N/A
N.O. INTL ARPT PTCLDY    69  65  86 SE9       30.01S
N.O. LAKEFRONT PTCLDY    70  65  84 SE8       30.02S
SLIDELL        CLOUDY    68  67  96 S9        30.02S
BATON ROUGE    CLOUDY    68  67  96 E5        29.99R
BOOTHVILLE     FOG       64  64 100 E6        30.04S VSB 1/4
BELLE CHASSE   MOCLDY    69  66  90 SE7       30.01S
BOGALUSA*        N/A     69  65  86 S8        30.04S
GALLIANO*      MOCLDY    73  69  86 SE3       30.02S
NEW ROADS*     MOCLDY    69  68  96 SE5       29.98S
GONZALES*      MOCLDY    70  70 100 S6        29.99S
HAMMOND*       MOCLDY    66  63  88 SE6       30.02F
HOUMA*         MOCLDY    70  68  95 SE7       30.00F FOG
PORT FOURCHON* PTCLDY    70  68  94 SE6       30.05S

$$

LAZ041-044-053-054-040500-
SOUTHWEST LOUISIANA

CITY           SKY/WX    TMP DP  RH WIND       PRES   REMARKS
LAKE CHARLES   CLOUDY    69  68  96 S6        29.95S
LAFAYETTE      CLOUDY    69  68  96 S6        29.97S
PATTERSON      CLEAR     70  66  88 S8        29.99R
SALT POINT       N/A     65  65 100 SE8       29.97S
NEW IBERIA     CLOUDY    69  67  93 S7        29.98R
CHENAULT AIRPK CLOUDY    68  67  96 S8        29.96S

$$

LAZ027-028-040500-
CENTRAL LOUISIANA

CITY           SKY/WX    TMP DP  RH WIND       PRES   REMARKS
FORT POLK      CLOUDY    69  66  90 S9        29.94R
ALEXANDRIA INT CLOUDY    65  64  97 CALM      29.95R
ALEXANDRIA     MOCLDY    64  62  93 CALM      29.96R FOG

$$

LAZ001-002-040500-
NORTHWEST LOUISIANA

CITY           SKY/WX    TMP DP  RH WIND       PRES   REMARKS
SHREVEPORT     CLOUDY    67  63  87 S10       29.88R
BARKSDALE AFB  CLOUDY    66  63  87 S10       29.88R
DTN SHREVEPORT CLOUDY    67  61  81 S10       29.88R

$$

LAZ014-016-040500-
NORTHEAST LOUISIANA

CITY           SKY/WX    TMP DP  RH WIND       PRES   REMARKS
MONROE         CLEAR     66  63  90 S8        29.94F
TALLULAH       CLOUDY    66  64  93 S7        29.97R

$$




USA.gov is the U.S. government's official web portal to all federal, state and local government web resources and services.